Lexington, NE

12:15 PM CST on November 15, 2019 (GMT -0600)
Kelly

Weather History for KLXN - June, 2019

Change the Weather History Date:

Wednesday, June 12, 2019

  Actual Average Record
Temperature  
Mean Temperature 58 °F -  
Max Temperature 69 °F 77 °F 93 °F (2000)
Min Temperature 49 °F 53 °F 46 °F (2008)
Degree Days  
Heating Degree Days 6    
Growing Degree Days 8 (Base 50)    
Moisture  
Dew Point 48 °F    
Average Humidity 71    
Maximum Humidity 97    
Minimum Humidity 41    
Precipitation  
Precipitation 0.00 in - - ()
Sea Level Pressure  
Sea Level Pressure 30.17 in    
Wind  
Wind Speed 10 mph (North)    
Max Wind Speed 17 mph    
Max Gust Speed 23 mph    
Visibility 10 miles    
Events      
Averages and records for this station are not official NWS values.
T = Trace of Precipitation, MM = Missing Value Source: NWS Daily Summary

Daily Weather History Graph

Daily Weather History Graph

Search for Another Location

Airport or City:

Astronomy

Jun. 12, 2019 Rise Set
Actual Time 6:07 AM CDT 9:10 PM CDT
Civil Twilight 5:33 AM CDT 9:44 PM CDT
Nautical Twilight 4:51 AM CDT 10:26 PM CDT
Astronomical Twilight 4:01 AM CDT 11:16 PM CDT
Moon 4:18 PM CDT (6/12) 3:24 AM CDT (6/12)
Length of Visible Light 16h 10m
Length of Day
15h 03m
Waxing Gibbous, 77% of the Moon is Illuminated
Jun 12
Waxing Gibbous
Jun 17
Full
Jun 25
Last Quarter
Jul 2
New
Jul 9
First Quarter

Hourly Weather History & Observations

Time (CDT) Temp. Dew Point Humidity Pressure Visibility Wind Dir Wind Speed Gust Speed Precip Events Conditions
12:15 AM 52.2 °F 51.3 °F 97% 30.12 in 10.0 mi West 6.9 mph - N/A   Clear
12:35 AM 52.2 °F 50.9 °F 95% 30.13 in 10.0 mi WNW 6.9 mph - N/A   Clear
12:55 AM 52.0 °F 50.9 °F 96% 30.13 in 10.0 mi WNW 6.9 mph - N/A   Clear
1:15 AM 51.8 °F 50.9 °F 97% 30.13 in 10.0 mi WNW 8.1 mph - N/A   Clear
1:35 AM 51.8 °F 50.9 °F 97% 30.13 in 10.0 mi WNW 6.9 mph - N/A   Clear
1:55 AM 51.8 °F 50.2 °F 94% 30.13 in 10.0 mi WNW 8.1 mph - N/A   Clear
2:15 AM 51.3 °F 49.8 °F 95% 30.13 in 10.0 mi WNW 5.8 mph - N/A   Clear
2:35 AM 51.6 °F 49.5 °F 92% 30.13 in 10.0 mi WNW 8.1 mph - N/A   Clear
2:55 AM 51.1 °F 49.6 °F 95% 30.13 in 10.0 mi WNW 8.1 mph - N/A   Clear
3:15 AM 50.5 °F 49.3 °F 95% 30.13 in 10.0 mi WNW 8.1 mph - N/A   Clear
3:35 AM 50.4 °F 49.1 °F 95% 30.13 in 10.0 mi WNW 8.1 mph - N/A   Clear
3:55 AM 50.0 °F 48.7 °F 95% 30.13 in 10.0 mi NW 8.1 mph - N/A   Clear
4:15 AM 50.2 °F 48.7 °F 95% 30.13 in 10.0 mi NW 10.4 mph - N/A   Clear
4:55 AM 50.4 °F 48.7 °F 94% 30.14 in 10.0 mi WNW 10.4 mph - N/A   Clear
5:15 AM 50.2 °F 48.4 °F 94% 30.14 in 10.0 mi NW 9.2 mph - N/A   Clear
5:35 AM 50.0 °F 47.8 °F 92% 30.15 in 10.0 mi NW 11.5 mph - N/A   Clear
5:55 AM 50.0 °F 48.2 °F 94% 30.16 in 10.0 mi WNW 11.5 mph - N/A   Clear
6:15 AM 49.5 °F 48.2 °F 95% 30.17 in 10.0 mi WNW 11.5 mph - N/A   Scattered Clouds
6:35 AM 49.5 °F 47.8 °F 94% 30.17 in 10.0 mi NW 11.5 mph - N/A   Scattered Clouds
6:55 AM 49.6 °F 47.8 °F 94% 30.17 in 10.0 mi NNW 10.4 mph - N/A   Clear
7:15 AM 51.4 °F 48.6 °F 90% 30.17 in 10.0 mi NNW 12.7 mph - N/A   Clear
7:35 AM 52.2 °F 49.1 °F 89% 30.17 in 10.0 mi NNW 11.5 mph - N/A   Clear
7:55 AM 54.3 °F 49.8 °F 85% 30.18 in 10.0 mi NNW 13.8 mph - N/A   Clear
8:15 AM 55.8 °F 51.1 °F 84% 30.18 in 10.0 mi NNW 12.7 mph - N/A   Clear
8:35 AM 57.2 °F 51.3 °F 81% 30.18 in 10.0 mi North 13.8 mph 23.0 mph N/A   Clear
8:55 AM 58.3 °F 51.6 °F 78% 30.19 in 10.0 mi North 17.3 mph 20.7 mph N/A   Clear
9:15 AM 59.0 °F 51.8 °F 77% 30.20 in 10.0 mi North 15.0 mph 23.0 mph N/A   Clear
9:35 AM 59.9 °F 51.4 °F 74% 30.20 in 10.0 mi North 17.3 mph - N/A   Clear
9:55 AM 60.8 °F 52.2 °F 73% 30.20 in 10.0 mi North 15.0 mph - N/A   Scattered Clouds
10:15 AM 61.3 °F 52.2 °F 72% 30.21 in 10.0 mi North 15.0 mph 21.9 mph N/A   Scattered Clouds
10:35 AM 62.1 °F 51.6 °F 69% 30.21 in 10.0 mi North 16.1 mph 19.6 mph N/A   Clear
10:55 AM 63.0 °F 50.9 °F 65% 30.20 in 10.0 mi North 17.3 mph - N/A   Scattered Clouds
11:15 AM 63.7 °F 50.7 °F 63% 30.20 in 10.0 mi North 17.3 mph 21.9 mph N/A   Mostly Cloudy
11:35 AM 63.0 °F 50.9 °F 65% 30.20 in 10.0 mi North 16.1 mph - N/A   Mostly Cloudy
11:55 AM 64.8 °F 52.0 °F 63% 30.21 in 10.0 mi NNE 17.3 mph 23.0 mph N/A   Overcast
12:15 PM 64.9 °F 50.7 °F 60% 30.20 in 10.0 mi North 16.1 mph 23.0 mph N/A   Mostly Cloudy
12:35 PM 65.3 °F 49.5 °F 57% 30.20 in 10.0 mi North 15.0 mph 23.0 mph N/A   Scattered Clouds
12:55 PM 65.3 °F 50.2 °F 58% 30.20 in 10.0 mi North 15.0 mph 21.9 mph N/A   Scattered Clouds
1:15 PM 65.5 °F 48.4 °F 54% 30.20 in 10.0 mi North 17.3 mph 21.9 mph N/A   Mostly Cloudy
1:35 PM 65.8 °F 49.1 °F 55% 30.20 in 10.0 mi North 16.1 mph 23.0 mph N/A   Mostly Cloudy
1:55 PM 66.2 °F 48.7 °F 53% 30.20 in 10.0 mi NNE 12.7 mph 21.9 mph N/A   Mostly Cloudy
2:15 PM 65.8 °F 48.7 °F 54% 30.19 in 10.0 mi NNE 10.4 mph 20.7 mph N/A   Mostly Cloudy
2:35 PM 66.0 °F 45.1 °F 47% 30.19 in 10.0 mi North 16.1 mph 21.9 mph N/A   Scattered Clouds
2:55 PM 67.1 °F 46.8 °F 48% 30.19 in 10.0 mi NNE 13.8 mph 18.4 mph N/A   Scattered Clouds
3:15 PM 67.3 °F 46.0 °F 46% 30.18 in 10.0 mi North 12.7 mph 17.3 mph N/A   Scattered Clouds
3:35 PM 68.4 °F 46.9 °F 46% 30.19 in 10.0 mi NE 11.5 mph 19.6 mph N/A   Scattered Clouds
3:55 PM 68.2 °F 47.1 °F 47% 30.19 in 10.0 mi North 11.5 mph - N/A   Scattered Clouds
4:15 PM 68.0 °F 45.5 °F 44% 30.18 in 10.0 mi NNE 11.5 mph - N/A   Scattered Clouds
4:35 PM 68.2 °F 45.5 °F 44% 30.18 in 10.0 mi North 8.1 mph 17.3 mph N/A   Scattered Clouds
4:55 PM 68.2 °F 43.9 °F 41% 30.18 in 10.0 mi North 4.6 mph 16.1 mph N/A   Scattered Clouds
5:15 PM 67.8 °F 44.1 °F 42% 30.17 in 10.0 mi NNE 3.5 mph - N/A   Clear
5:35 PM 68.0 °F 43.7 °F 41% 30.17 in 10.0 mi North 9.2 mph - N/A   Scattered Clouds
5:55 PM 68.4 °F 46.9 °F 46% 30.17 in 10.0 mi North 9.2 mph - N/A   Clear
6:15 PM 68.0 °F 45.0 °F 43% 30.17 in 10.0 mi NE 6.9 mph - N/A   Clear
6:35 PM 68.0 °F 45.0 °F 43% 30.16 in 7.0 mi NNE 8.1 mph - N/A   Clear
6:55 PM 66.4 °F 45.7 °F 47% 30.16 in 10.0 mi North 3.5 mph - N/A   Clear
7:15 PM 66.9 °F 43.7 °F 43% 30.16 in 10.0 mi North 4.6 mph - N/A   Clear
7:35 PM 65.8 °F 46.2 °F 49% 30.15 in 10.0 mi NNE 3.5 mph - N/A   Clear
7:55 PM 64.6 °F 47.7 °F 54% 30.15 in 10.0 mi NE 5.8 mph - N/A   Clear
8:15 PM 63.7 °F 47.5 °F 56% 30.15 in 10.0 mi East 3.5 mph - N/A   Clear
8:35 PM 61.2 °F 48.2 °F 62% 30.14 in 10.0 mi East 4.6 mph - N/A   Clear
8:55 PM 59.2 °F 46.9 °F 64% 30.14 in 10.0 mi East 4.6 mph - N/A   Clear
9:15 PM 61.0 °F 43.3 °F 52% 30.14 in 10.0 mi ESE 3.5 mph - N/A   Clear
9:55 PM 54.7 °F 45.7 °F 72% 30.15 in 10.0 mi SE 4.6 mph - N/A   Clear
10:15 PM 56.1 °F 44.8 °F 66% 30.15 in 10.0 mi SSE 5.8 mph - N/A   Clear
10:35 PM 55.6 °F 45.5 °F 69% 30.15 in 10.0 mi SSE 3.5 mph - N/A   Clear
10:55 PM 53.4 °F 47.1 °F 79% 30.15 in 10.0 mi SSE 3.5 mph - N/A   Clear
11:15 PM 53.2 °F 46.2 °F 77% 30.14 in 10.0 mi SSE 4.6 mph - N/A   Clear
11:35 PM 52.7 °F 47.3 °F 82% 30.14 in 10.0 mi South 4.6 mph - N/A   Clear
11:55 PM 52.0 °F 45.9 °F 80% 30.14 in 10.0 mi South 4.6 mph - N/A   Clear